AFR47 LFPG-FIMP

Flight info

Callsign AFR47
Flight time N/A
Altitude 33000
Route OKASI DCT OKEKO DCT MOU DCT MADIV DCT MOKIP DCT TUFTA DCT KOGAS DCT MEDAM DCT NITAM DCT MOGBO DCT TINKU DCT EKMIL DCT LUXIL DCT LATAN DCT SALUN N705 MMA/N0486F350 N705 BOPIX N710 TAKRI P751 LXR M999 JDW G650 RASKA/N0494F360 G650 ASM/N0497F350 UR780 SETIT DCT XADOX DCT DWA N304 GIBAX/N0492F370 N304 AVUSI UN304 APKAK/N0494F360 UN304 ALRUS/N0488F380 UN304 DENLI/N0492F370 UN304 MAEVA UL433 APKOT DCT TIBAG TIBAG2E
Aircraft B77W/H-SDE1E2E3FGHIJ2J3J4J5M1RWXY/LB1D1

Departure

Time 2026-05-05 20:11
Airport Charles de Gaulle International Airport (LFPG)

Arrival

Time N/A
Airport Sir Seewoosagur Ramgoolam International Airport (FIMP)
Time Latitude Longitude Altitude Speed Heading
2026-05-05 19:27 49.00621 2.59171 343 ft 0 kts 265°
2026-05-05 19:51 49.00621 2.59187 343 ft 2 kts 265°
2026-05-05 19:51 49.00623 2.59210 343 ft 2 kts 265°
2026-05-05 19:51 49.00624 2.59233 343 ft 2 kts 265°
2026-05-05 19:51 49.00624 2.59256 343 ft 2 kts 279°
2026-05-05 19:52 49.00620 2.59277 343 ft 2 kts 304°
2026-05-05 19:52 49.00610 2.59294 343 ft 2 kts 324°
2026-05-05 19:52 49.00597 2.59304 343 ft 2 kts 345°
2026-05-05 19:52 49.00587 2.59307 343 ft 1 kts 356°
2026-05-05 19:53 49.00586 2.59307 343 ft 0 kts 356°
2026-05-05 19:57 49.00594 2.59306 343 ft 2 kts 356°
2026-05-05 19:57 49.00608 2.59308 343 ft 3 kts 20°
2026-05-05 19:57 49.00632 2.59367 343 ft 7 kts 87°
2026-05-05 19:57 49.00600 2.59433 343 ft 9 kts 157°
2026-05-05 19:58 49.00523 2.59448 343 ft 12 kts 176°
2026-05-05 19:58 49.00429 2.59459 342 ft 13 kts 175°
2026-05-05 19:58 49.00338 2.59471 340 ft 13 kts 175°
2026-05-05 19:58 49.00248 2.59482 338 ft 12 kts 175°
2026-05-05 19:59 49.00159 2.59493 336 ft 12 kts 176°
2026-05-05 19:59 49.00087 2.59489 330 ft 10 kts 213°
2026-05-05 19:59 49.00067 2.59381 329 ft 10 kts 267°
2026-05-05 19:59 49.00061 2.59270 328 ft 10 kts 266°
2026-05-05 20:00 49.00056 2.59160 330 ft 10 kts 266°
2026-05-05 20:00 49.00050 2.59045 330 ft 11 kts 266°
2026-05-05 20:00 49.00043 2.58918 329 ft 12 kts 265°
2026-05-05 20:00 49.00035 2.58776 329 ft 13 kts 265°
2026-05-05 20:01 49.00028 2.58638 332 ft 12 kts 266°
2026-05-05 20:01 49.00021 2.58515 334 ft 11 kts 265°
2026-05-05 20:01 49.00015 2.58389 336 ft 12 kts 266°
2026-05-05 20:01 49.00008 2.58257 338 ft 12 kts 266°
2026-05-05 20:02 49.00001 2.58124 341 ft 12 kts 266°
2026-05-05 20:02 48.99993 2.57981 343 ft 14 kts 265°
2026-05-05 20:02 48.99984 2.57817 347 ft 15 kts 265°
2026-05-05 20:02 48.99975 2.57645 351 ft 16 kts 266°
2026-05-05 20:03 48.99967 2.57479 356 ft 15 kts 266°
2026-05-05 20:03 48.99957 2.57305 359 ft 16 kts 265°
2026-05-05 20:03 48.99947 2.57117 359 ft 18 kts 266°
2026-05-05 20:03 48.99937 2.56914 357 ft 20 kts 265°
2026-05-05 20:04 48.99925 2.56702 352 ft 15 kts 266°
2026-05-05 20:04 48.99915 2.56514 350 ft 19 kts 265°
2026-05-05 20:04 48.99904 2.56326 346 ft 18 kts 265°
2026-05-05 20:04 48.99894 2.56113 342 ft 20 kts 265°
2026-05-05 20:05 48.99891 2.55948 339 ft 8 kts 278°
2026-05-05 20:05 48.99902 2.55871 337 ft 6 kts 274°
2026-05-05 20:05 48.99895 2.55824 336 ft 3 kts 242°
2026-05-05 20:05 48.99869 2.55796 336 ft 5 kts 188°
2026-05-05 20:06 48.99851 2.55797 336 ft 1 kts 173°
2026-05-05 20:06 48.99834 2.55799 337 ft 2 kts 176°
2026-05-05 20:06 48.99817 2.55801 337 ft 3 kts 176°
2026-05-05 20:06 48.99795 2.55803 337 ft 2 kts 176°
2026-05-05 20:07 48.99789 2.55804 337 ft 0 kts 176°
2026-05-05 20:07 48.99772 2.55806 338 ft 4 kts 176°
2026-05-05 20:07 48.99733 2.55810 339 ft 6 kts 176°
2026-05-05 20:07 48.99676 2.55816 340 ft 9 kts 178°
2026-05-05 20:08 48.99619 2.55822 340 ft 6 kts 154°
2026-05-05 20:08 48.99602 2.55881 340 ft 5 kts 86°
2026-05-05 20:08 48.99602 2.55884 340 ft 0 kts 86°
2026-05-05 20:10 48.99604 2.55938 340 ft 11 kts 85°
2026-05-05 20:10 48.99625 2.56316 343 ft 68 kts 85°
2026-05-05 20:11 48.99683 2.57380 351 ft 133 kts 85°
2026-05-05 20:11 48.99770 2.59105 392 ft 184 kts 85°
2026-05-05 20:11 48.99857 2.61042 1045 ft 188 kts 83°
2026-05-05 20:11 48.99967 2.63028 1833 ft 188 kts 79°
2026-05-05 20:12 49.00090 2.65055 2298 ft 199 kts 81°
2026-05-05 20:12 49.00211 2.67257 2643 ft 218 kts 82°
2026-05-05 20:12 49.00337 2.69644 2967 ft 239 kts 82°
2026-05-05 20:12 49.00469 2.72219 3585 ft 250 kts 83°
2026-05-05 20:13 49.00605 2.74883 4349 ft 254 kts 83°
2026-05-05 20:13 49.00742 2.77567 5093 ft 259 kts 84°
2026-05-05 20:13 49.00621 2.80322 5817 ft 265 kts 97°
2026-05-05 20:13 49.00317 2.83073 6557 ft 269 kts 98°
2026-05-05 20:14 48.99992 2.85910 7273 ft 273 kts 99°
2026-05-05 20:14 48.99663 2.88762 7987 ft 277 kts 99°
2026-05-05 20:14 48.99332 2.91628 8709 ft 280 kts 99°
2026-05-05 20:14 48.98994 2.94545 9409 ft 283 kts 99°
2026-05-05 20:15 48.98596 2.97492 10056 ft 288 kts 109°
2026-05-05 20:15 48.97569 3.00173 10319 ft 306 kts 135°
2026-05-05 20:15 48.95774 3.01956 10571 ft 324 kts 162°
2026-05-05 20:15 48.93471 3.02264 10850 ft 342 kts 190°
2026-05-05 20:16 48.91219 3.00949 11167 ft 359 kts 209°
2026-05-05 20:16 48.89059 2.98961 11597 ft 373 kts 212°
2026-05-05 20:16 48.86814 2.96828 12085 ft 386 kts 212°
2026-05-05 20:16 48.84518 2.94643 12798 ft 392 kts 212°
2026-05-05 20:17 48.82235 2.92473 13651 ft 394 kts 212°
2026-05-05 20:17 48.79920 2.90274 14493 ft 395 kts 213°
2026-05-05 20:17 48.77549 2.88026 15235 ft 400 kts 213°
2026-05-05 20:17 48.75206 2.85805 15926 ft 405 kts 213°
2026-05-05 20:18 48.72821 2.83548 16706 ft 407 kts 212°
2026-05-05 20:18 48.70405 2.81264 17404 ft 411 kts 212°
2026-05-05 20:18 48.67969 2.78964 18042 ft 416 kts 212°
2026-05-05 20:18 48.65508 2.76643 18664 ft 422 kts 212°
2026-05-05 20:19 48.63019 2.74298 18817 ft 425 kts 212°
2026-05-05 20:19 48.60523 2.71950 18829 ft 424 kts 212°
2026-05-05 20:19 48.58009 2.69587 18847 ft 429 kts 212°
2026-05-05 20:19 48.55380 2.67507 19425 ft 434 kts 202°
2026-05-05 20:20 48.52531 2.66137 20313 ft 432 kts 192°
2026-05-05 20:20 48.49527 2.65493 21029 ft 434 kts 182°
2026-05-05 20:20 48.46526 2.65609 21538 ft 439 kts 173°
2026-05-05 20:20 48.43531 2.66518 22108 ft 443 kts 162°
2026-05-05 20:21 48.40630 2.68070 22766 ft 445 kts 158°
2026-05-05 20:21 48.37758 2.69727 23438 ft 446 kts 158°
2026-05-05 20:21 48.34851 2.71409 24059 ft 449 kts 158°
2026-05-05 20:21 48.31952 2.73084 24652 ft 451 kts 158°
2026-05-05 20:22 48.29017 2.74778 25198 ft 455 kts 158°
2026-05-05 20:22 48.26030 2.76499 25697 ft 459 kts 158°
2026-05-05 20:22 48.23041 2.78220 26251 ft 462 kts 158°
2026-05-05 20:22 48.20058 2.79935 26803 ft 464 kts 158°
2026-05-05 20:23 48.17016 2.81682 27269 ft 468 kts 158°
2026-05-05 20:23 48.13987 2.83419 27684 ft 473 kts 158°
2026-05-05 20:23 48.10898 2.85189 28132 ft 476 kts 158°
2026-05-05 20:23 48.07763 2.86982 28611 ft 479 kts 158°
2026-05-05 20:24 48.04642 2.88765 29104 ft 482 kts 158°
2026-05-05 20:24 48.01495 2.90559 29719 ft 481 kts 158°
2026-05-05 20:24 47.98389 2.92329 30404 ft 479 kts 158°
2026-05-05 20:24 47.95300 2.94086 31079 ft 475 kts 158°
2026-05-05 20:25 47.92202 2.95846 31642 ft 472 kts 158°
2026-05-05 20:25 47.89178 2.97562 32057 ft 472 kts 158°
2026-05-05 20:25 47.86082 2.99316 32396 ft 471 kts 158°
2026-05-05 20:25 47.83046 3.01036 32696 ft 472 kts 159°
2026-05-05 20:26 47.79959 3.02781 32816 ft 474 kts 159°
2026-05-05 20:26 47.73815 3.06247 32820 ft 470 kts 159°
2026-05-05 20:27 47.67731 3.09672 32839 ft 472 kts 159°
2026-05-05 20:27 47.61599 3.13114 32838 ft 469 kts 159°
2026-05-05 20:28 47.55477 3.16542 32848 ft 470 kts 159°
2026-05-05 20:28 47.49368 3.19955 32839 ft 471 kts 159°
2026-05-05 20:29 47.43229 3.23376 32857 ft 470 kts 159°
2026-05-05 20:29 47.37119 3.26772 32850 ft 469 kts 160°
2026-05-05 20:30 47.31001 3.30164 32853 ft 471 kts 160°
2026-05-05 20:30 47.24900 3.33539 32856 ft 475 kts 160°
2026-05-05 20:31 47.18689 3.36965 32861 ft 478 kts 160°
2026-05-05 20:31 47.12481 3.40381 32865 ft 477 kts 160°
2026-05-05 20:32 47.06223 3.43817 32859 ft 477 kts 160°
2026-05-05 20:32 47.00016 3.47215 32851 ft 477 kts 160°
2026-05-05 20:33 46.93824 3.50598 32871 ft 478 kts 160°
2026-05-05 20:33 46.87562 3.54009 32876 ft 477 kts 161°
2026-05-05 20:34 46.81386 3.57372 32876 ft 476 kts 159°
2026-05-05 20:34 46.75615 3.62174 32884 ft 481 kts 143°
2026-05-05 20:35 46.71033 3.69291 32880 ft 487 kts 127°
2026-05-05 20:35 46.68072 3.78175 32880 ft 495 kts 109°
2026-05-05 20:36 46.66389 3.87928 32884 ft 497 kts 106°
2026-05-05 20:36 46.64760 3.97662 32889 ft 497 kts 107°
2026-05-05 20:37 46.63093 4.07402 32895 ft 498 kts 107°
2026-05-05 20:37 46.61411 4.17128 32901 ft 498 kts 107°
2026-05-05 20:38 46.59699 4.26932 32904 ft 498 kts 107°
2026-05-05 20:38 46.57988 4.36669 32905 ft 498 kts 107°
2026-05-05 20:39 46.56260 4.46431 32900 ft 499 kts 107°
2026-05-05 20:39 46.54521 4.56202 32897 ft 500 kts 107°
2026-05-05 20:40 46.52782 4.65915 32899 ft 499 kts 108°
2026-05-05 20:40 46.51025 4.75678 32895 ft 499 kts 108°
2026-05-05 20:41 46.48744 4.85068 32896 ft 493 kts 122°
2026-05-05 20:41 46.44870 4.93088 32900 ft 487 kts 133°
2026-05-05 20:42 46.40569 5.00652 32898 ft 486 kts 133°
2026-05-05 20:42 46.36274 5.08178 32905 ft 486 kts 133°
2026-05-05 20:43 46.31954 5.15727 32898 ft 486 kts 133°
2026-05-05 20:43 46.27660 5.23210 32913 ft 487 kts 133°
2026-05-05 20:44 46.23315 5.30762 32906 ft 486 kts 134°
2026-05-05 20:44 46.19001 5.38238 32928 ft 488 kts 134°
2026-05-05 20:45 46.12515 5.49444 32895 ft 486 kts 134°
2026-05-05 20:45 46.08160 5.56941 32893 ft 488 kts 134°
2026-05-05 20:46 46.03811 5.64407 32888 ft 486 kts 134°
2026-05-05 20:46 45.99443 5.71886 32891 ft 489 kts 135°
2026-05-05 20:47 45.95093 5.79316 32905 ft 488 kts 135°
2026-05-05 20:47 45.90712 5.86777 32895 ft 488 kts 135°
2026-05-05 20:48 45.86336 5.94211 32918 ft 490 kts 135°
2026-05-05 20:48 45.81918 6.01694 32917 ft 490 kts 136°
2026-05-05 20:49 45.77515 6.09133 32926 ft 492 kts 136°
2026-05-05 20:49 45.73108 6.16560 32922 ft 489 kts 136°
2026-05-05 20:50 45.68695 6.23976 32938 ft 492 kts 136°
2026-05-05 20:50 45.64265 6.31401 32966 ft 490 kts 136°
2026-05-05 20:51 45.59828 6.38818 32971 ft 492 kts 137°
2026-05-05 20:51 45.55382 6.46232 32985 ft 491 kts 137°
2026-05-05 20:52 45.50961 6.53584 32985 ft 489 kts 137°
2026-05-05 20:52 45.46534 6.60925 32990 ft 490 kts 137°
2026-05-05 20:53 45.42046 6.68346 32956 ft 492 kts 139°
2026-05-05 20:53 45.37628 6.75637 32961 ft 491 kts 139°
2026-05-05 20:54 45.33157 6.82991 32960 ft 491 kts 139°
2026-05-05 20:54 45.28673 6.90350 32975 ft 492 kts 139°
2026-05-05 20:55 45.24018 6.97348 32982 ft 483 kts 144°
2026-05-05 20:55 45.19152 7.04053 32988 ft 485 kts 144°
2026-05-05 20:56 45.14278 7.10750 32979 ft 485 kts 144°
2026-05-05 20:56 45.09624 7.17785 32968 ft 495 kts 135°
2026-05-05 20:57 45.05911 7.26215 32982 ft 512 kts 128°
2026-05-05 20:57 45.02416 7.34947 33002 ft 510 kts 128°
2026-05-05 20:58 44.98909 7.43694 33005 ft 508 kts 128°
2026-05-05 20:58 44.95399 7.52411 32990 ft 509 kts 128°
2026-05-05 20:59 44.91886 7.61116 32990 ft 507 kts 128°
2026-05-05 20:59 44.88387 7.69757 32989 ft 508 kts 129°
2026-05-05 21:00 44.84857 7.78442 32982 ft 508 kts 129°
2026-05-05 21:00 44.81324 7.87115 32980 ft 509 kts 129°
2026-05-05 21:01 44.77764 7.95819 32976 ft 510 kts 129°
2026-05-05 21:01 44.74235 8.04429 32973 ft 510 kts 128°
2026-05-05 21:02 44.70664 8.13108 32975 ft 511 kts 128°
2026-05-05 21:02 44.67091 8.21772 32979 ft 510 kts 128°
2026-05-05 21:03 44.63519 8.30401 32990 ft 512 kts 128°
2026-05-05 21:03 44.59929 8.39053 32990 ft 513 kts 128°
2026-05-05 21:04 44.56336 8.47679 32987 ft 512 kts 128°
2026-05-05 21:04 44.52698 8.56390 32990 ft 514 kts 128°
2026-05-05 21:05 44.49077 8.65033 32984 ft 514 kts 129°
2026-05-05 21:05 44.45454 8.73660 32976 ft 511 kts 129°
2026-05-05 21:06 44.41820 8.82281 32975 ft 513 kts 129°
2026-05-05 21:06 44.38168 8.90920 32970 ft 513 kts 129°
2026-05-05 21:07 44.34533 8.99490 32960 ft 515 kts 129°
2026-05-05 21:07 44.30864 9.08120 32956 ft 512 kts 128°
2026-05-05 21:08 44.27208 9.16686 32954 ft 518 kts 129°
2026-05-05 21:08 44.23535 9.25277 32956 ft 512 kts 129°
2026-05-05 21:09 44.19844 9.33875 32957 ft 516 kts 128°
2026-05-05 21:09 44.16152 9.42455 32962 ft 515 kts 128°
2026-05-05 21:10 44.12453 9.51020 32964 ft 517 kts 128°
2026-05-05 21:10 44.08726 9.59625 32965 ft 519 kts 128°
2026-05-05 21:11 44.05000 9.68205 32955 ft 517 kts 129°
2026-05-05 21:11 44.01287 9.76732 32961 ft 518 kts 129°
2026-05-05 21:12 43.97535 9.85320 32961 ft 517 kts 129°
2026-05-05 21:12 43.93817 9.93805 32964 ft 519 kts 129°
2026-05-05 21:13 43.90084 10.02298 32970 ft 518 kts 129°
2026-05-05 21:13 43.86316 10.10846 32979 ft 519 kts 128°
2026-05-05 21:14 43.82549 10.19368 32985 ft 521 kts 128°
2026-05-05 21:14 43.78764 10.27905 32989 ft 518 kts 128°
2026-05-05 21:15 43.74970 10.36435 32993 ft 522 kts 128°
2026-05-05 21:15 43.71161 10.44977 33003 ft 521 kts 128°
2026-05-05 21:16 43.67350 10.53498 33002 ft 520 kts 128°
2026-05-05 21:16 43.63532 10.62008 33003 ft 521 kts 128°
2026-05-05 21:17 43.59727 10.70468 32992 ft 519 kts 129°
2026-05-05 21:17 43.55894 10.78961 32995 ft 522 kts 128°
2026-05-05 21:18 43.52049 10.87457 32999 ft 523 kts 128°
2026-05-05 21:18 43.48227 10.95879 33000 ft 520 kts 128°
2026-05-05 21:19 43.44371 11.04352 33004 ft 519 kts 128°
2026-05-05 21:19 43.40528 11.12766 33010 ft 524 kts 128°
2026-05-05 21:20 43.36681 11.21175 33009 ft 519 kts 128°
2026-05-05 21:20 43.32798 11.29630 33011 ft 523 kts 128°
2026-05-05 21:21 43.28909 11.38076 33015 ft 523 kts 128°
2026-05-05 21:21 43.25004 11.46533 33019 ft 522 kts 128°
2026-05-05 21:22 43.21101 11.54959 33025 ft 523 kts 127°
2026-05-05 21:22 43.17164 11.63436 33029 ft 525 kts 127°
2026-05-05 21:23 43.13253 11.71835 33026 ft 522 kts 128°
2026-05-05 21:23 43.09337 11.80218 33028 ft 525 kts 128°
2026-05-05 21:24 43.05393 11.88639 33026 ft 522 kts 128°
2026-05-05 21:24 43.01480 11.96970 33030 ft 522 kts 128°
2026-05-05 21:25 42.97529 12.05357 33030 ft 522 kts 127°
2026-05-05 21:25 42.93558 12.13762 33036 ft 525 kts 128°
2026-05-05 21:26 42.89601 12.22112 33032 ft 525 kts 127°
2026-05-05 21:26 42.85632 12.30468 33043 ft 526 kts 127°
2026-05-05 21:27 42.81630 12.38868 33048 ft 525 kts 127°
2026-05-05 21:27 42.77667 12.47164 33044 ft 524 kts 128°
2026-05-05 21:28 42.73675 12.55495 33051 ft 526 kts 127°
2026-05-05 21:28 42.69664 12.63843 33058 ft 526 kts 127°
2026-05-05 21:29 42.65655 12.72165 33053 ft 525 kts 128°
2026-05-05 21:29 42.61650 12.80453 33061 ft 527 kts 128°
2026-05-05 21:30 42.57621 12.88772 33059 ft 526 kts 128°
2026-05-05 21:30 42.53590 12.97068 33075 ft 527 kts 128°
2026-05-05 21:31 42.49524 13.05413 33092 ft 527 kts 127°
2026-05-05 21:31 42.45500 13.13651 33086 ft 526 kts 127°
2026-05-05 21:32 42.41440 13.21937 33081 ft 528 kts 127°
2026-05-05 21:32 42.37374 13.30216 33083 ft 527 kts 127°
2026-05-05 21:33 42.33296 13.38493 33088 ft 529 kts 127°
2026-05-05 21:33 42.29238 13.46708 33091 ft 528 kts 127°
2026-05-05 21:34 42.25126 13.55010 33090 ft 529 kts 127°
2026-05-05 21:34 42.21040 13.63236 33089 ft 530 kts 127°
2026-05-05 21:35 42.16916 13.71519 33075 ft 528 kts 127°
2026-05-05 21:35 42.12813 13.79733 33076 ft 530 kts 127°
2026-05-05 21:36 42.08695 13.87958 33085 ft 530 kts 127°
2026-05-05 21:36 42.04550 13.96212 33079 ft 530 kts 127°
2026-05-05 21:37 42.00427 14.04401 33080 ft 529 kts 127°
2026-05-05 21:37 41.96291 14.12592 33079 ft 530 kts 127°
2026-05-05 21:38 41.92130 14.20813 33082 ft 530 kts 127°
2026-05-05 21:38 41.87982 14.28984 33078 ft 531 kts 127°
2026-05-05 21:39 41.83830 14.37142 33075 ft 531 kts 127°
2026-05-05 21:39 41.79662 14.45309 33068 ft 531 kts 127°
2026-05-05 21:40 41.75483 14.53475 33057 ft 531 kts 126°
2026-05-05 21:40 41.71322 14.61585 33054 ft 531 kts 126°
2026-05-05 21:41 41.67133 14.69728 33040 ft 531 kts 127°
2026-05-05 21:41 41.62960 14.77818 33046 ft 531 kts 127°
2026-05-05 21:42 41.58758 14.85942 33044 ft 531 kts 127°
2026-05-05 21:42 41.54559 14.94039 33042 ft 532 kts 127°
2026-05-05 21:43 41.50344 15.02145 33042 ft 531 kts 127°
2026-05-05 21:43 41.46131 15.10227 33039 ft 534 kts 127°
2026-05-05 21:44 41.41901 15.18321 33042 ft 532 kts 127°
2026-05-05 21:44 41.37669 15.26394 33051 ft 533 kts 126°
2026-05-05 21:45 41.33419 15.34481 33052 ft 534 kts 126°
2026-05-05 21:45 41.29166 15.42555 33055 ft 533 kts 126°
2026-05-05 21:46 41.24910 15.50612 33056 ft 535 kts 126°
2026-05-05 21:46 41.20621 15.58709 33060 ft 534 kts 126°
2026-05-05 21:47 41.16345 15.66761 33056 ft 536 kts 127°
2026-05-05 21:47 41.12073 15.74786 33056 ft 534 kts 127°
2026-05-05 21:48 41.07748 15.82887 33059 ft 536 kts 127°
2026-05-05 21:48 41.03452 15.90913 33060 ft 536 kts 127°
2026-05-05 21:49 40.99133 15.98964 33066 ft 537 kts 127°
2026-05-05 21:49 40.94826 16.06968 33071 ft 538 kts 126°
2026-05-05 21:50 40.90469 16.15046 33077 ft 537 kts 127°
2026-05-05 21:50 40.86124 16.23079 33072 ft 537 kts 126°
2026-05-05 21:51 40.81804 16.31049 33070 ft 537 kts 126°
2026-05-05 21:51 40.77462 16.39035 33068 ft 535 kts 126°
2026-05-05 21:52 40.70929 16.51015 33066 ft 536 kts 126°
2026-05-05 21:53 40.66571 16.58980 33065 ft 536 kts 126°
2026-05-05 21:53 40.62215 16.66922 33057 ft 536 kts 127°
2026-05-05 21:54 40.57820 16.74914 33053 ft 535 kts 127°
2026-05-05 21:54 40.53448 16.82844 33050 ft 535 kts 126°
2026-05-05 21:55 40.49092 16.90725 33040 ft 535 kts 126°
2026-05-05 21:55 40.44697 16.98657 33038 ft 535 kts 126°
2026-05-05 21:56 40.40307 17.06558 33041 ft 534 kts 126°
2026-05-05 21:56 40.35915 17.14446 33036 ft 534 kts 126°
2026-05-05 21:57 40.31548 17.22265 33039 ft 535 kts 126°
2026-05-05 21:57 40.27151 17.30122 33046 ft 534 kts 126°
2026-05-05 21:58 40.22747 17.37971 33052 ft 535 kts 126°
2026-05-05 21:58 40.18338 17.45808 33054 ft 535 kts 126°
2026-05-05 21:59 40.13939 17.53608 33062 ft 535 kts 126°
2026-05-05 21:59 40.09510 17.61442 33066 ft 536 kts 126°
2026-05-05 22:00 40.05080 17.69259 33062 ft 534 kts 127°
2026-05-05 22:00 40.00665 17.77028 33064 ft 536 kts 127°
2026-05-05 22:01 39.96170 17.84920 33071 ft 536 kts 127°
2026-05-05 22:01 39.91742 17.92676 33080 ft 535 kts 127°
2026-05-05 22:02 39.87284 18.00463 33071 ft 534 kts 127°
2026-05-05 22:02 39.82817 18.08249 33073 ft 536 kts 126°
2026-05-05 22:03 39.78345 18.16023 33075 ft 535 kts 126°
2026-05-05 22:03 39.73891 18.23745 33075 ft 536 kts 126°
2026-05-05 22:04 39.69405 18.31506 33084 ft 537 kts 126°
2026-05-05 22:04 39.64930 18.39229 33081 ft 537 kts 126°
2026-05-05 22:05 39.60397 18.47032 33075 ft 536 kts 126°
2026-05-05 22:05 39.55919 18.54722 33085 ft 537 kts 126°
2026-05-05 22:06 39.51384 18.62491 33089 ft 537 kts 126°
2026-05-05 22:06 39.46888 18.70176 33085 ft 537 kts 127°
2026-05-05 22:07 39.42350 18.77911 33083 ft 539 kts 127°
2026-05-05 22:07 39.37836 18.85590 33091 ft 539 kts 127°
2026-05-05 22:08 39.33287 18.93307 33096 ft 539 kts 127°
2026-05-05 22:08 39.28357 19.00614 33100 ft 539 kts 137°
2026-05-05 22:09 39.22810 19.07120 33104 ft 538 kts 138°
2026-05-05 22:09 39.17205 19.13553 33098 ft 540 kts 139°
2026-05-05 22:10 39.11583 19.19941 33106 ft 538 kts 139°
2026-05-05 22:10 39.05994 19.26252 33103 ft 539 kts 139°
2026-05-05 22:11 39.00349 19.32597 33107 ft 538 kts 139°
2026-05-05 22:11 38.94680 19.38946 33108 ft 540 kts 139°
2026-05-05 22:12 38.89019 19.45267 33104 ft 538 kts 139°
2026-05-05 22:12 38.83350 19.51580 33099 ft 537 kts 139°
2026-05-05 22:13 38.77722 19.57832 33103 ft 537 kts 139°
2026-05-05 22:13 38.72044 19.64126 33103 ft 538 kts 139°
2026-05-05 22:14 38.66378 19.70392 33100 ft 538 kts 139°
2026-05-05 22:14 38.60704 19.76653 33099 ft 537 kts 140°
2026-05-05 22:15 38.55024 19.82906 33103 ft 538 kts 139°
2026-05-05 22:15 38.49374 19.89113 33107 ft 536 kts 139°
2026-05-05 22:16 38.43711 19.95322 33110 ft 538 kts 139°
2026-05-05 22:16 38.38038 20.01528 33109 ft 536 kts 139°
2026-05-05 22:17 38.32346 20.07740 33115 ft 536 kts 140°
2026-05-05 22:17 38.26725 20.13862 33118 ft 536 kts 140°
2026-05-05 22:18 38.21060 20.20020 33120 ft 536 kts 140°
2026-05-05 22:18 38.15365 20.26197 33113 ft 536 kts 140°
2026-05-05 22:19 38.09705 20.32323 33108 ft 536 kts 140°
2026-05-05 22:19 38.04031 20.38451 33112 ft 536 kts 139°
2026-05-05 22:20 37.98332 20.44592 33125 ft 536 kts 139°
2026-05-05 22:20 37.92646 20.50707 33126 ft 535 kts 139°
2026-05-05 22:21 37.86950 20.56820 33118 ft 535 kts 139°
2026-05-05 22:21 37.81290 20.62883 33122 ft 535 kts 140°
2026-05-05 22:22 37.75593 20.68971 33118 ft 534 kts 140°
2026-05-05 22:22 37.69913 20.75028 33108 ft 536 kts 140°
2026-05-05 22:23 37.64227 20.81081 33101 ft 534 kts 140°
2026-05-05 22:23 37.58521 20.87141 33098 ft 534 kts 141°
2026-05-05 22:24 37.52838 20.93163 33096 ft 535 kts 141°
2026-05-05 22:24 37.47158 20.99171 33097 ft 533 kts 141°
2026-05-05 22:25 37.41478 21.05166 33100 ft 534 kts 140°
2026-05-05 22:25 37.35798 21.11150 33101 ft 533 kts 140°
2026-05-05 22:26 37.31034 21.16158 33100 ft 534 kts 140°